Time,TemperatureF,DewpointF,PressureIn,WindDirection,WindDirectionDegrees,WindSpeedMPH,WindSpeedGustMPH,Humidity,HourlyPrecipIn,Conditions,Clouds,dailyrainin,SoftwareType,DateUTC
2013-06-20 00:00:00,60.0,44.7,29.81,WNW,292,0.0,5.0,57,0.00,,,0.00,Weather View 32 v70,2013-06-20 07:00:00,
2013-06-20 00:30:00,59.0,46.4,29.81,West,270,3.0,5.0,63,0.00,,,0.00,Weather View 32 v70,2013-06-20 07:30:00,
2013-06-20 01:00:00,58.0,44.6,29.81,WNW,292,0.0,6.0,61,0.00,,,0.00,Weather View 32 v70,2013-06-20 08:00:00,
2013-06-20 01:30:00,58.0,45.4,29.80,NW,315,1.0,7.0,63,0.00,,,0.00,Weather View 32 v70,2013-06-20 08:30:00,
2013-06-20 02:00:00,57.0,46.1,29.79,WNW,292,0.0,7.0,67,0.00,,,0.00,Weather View 32 v70,2013-06-20 09:00:00,
2013-06-20 02:30:00,57.0,48.0,29.78,NNW,337,0.0,6.0,72,0.00,,,0.00,Weather View 32 v70,2013-06-20 09:30:00,
2013-06-20 03:00:00,56.0,49.6,29.78,NW,315,0.0,5.0,79,0.00,,,0.00,Weather View 32 v70,2013-06-20 10:00:00,
2013-06-20 03:30:00,55.0,50.9,29.77,WNW,292,0.0,0.0,86,0.00,,,0.00,Weather View 32 v70,2013-06-20 10:30:00,
2013-06-20 04:00:00,54.0,51.1,29.77,WNW,292,0.0,3.0,90,0.00,,,0.00,Weather View 32 v70,2013-06-20 11:00:00,
2013-06-20 04:30:00,53.0,51.0,29.77,WNW,292,0.0,3.0,93,0.00,,,0.00,Weather View 32 v70,2013-06-20 11:30:00,
2013-06-20 05:00:00,51.0,46.0,29.77,SSE,157,0.0,3.0,83,0.00,,,0.00,Weather View 32 v70,2013-06-20 12:00:00,
2013-06-20 05:30:00,49.0,38.5,29.77,SSE,157,0.0,0.0,67,0.00,,,0.00,Weather View 32 v70,2013-06-20 12:30:00,
2013-06-20 06:00:00,48.0,26.0,29.77,SSE,157,0.0,0.0,42,0.00,,,0.00,Weather View 32 v70,2013-06-20 13:00:00,
2013-06-20 06:30:00,52.0,-46.0,29.79,SSE,157,0.0,0.0,1,0.00,,,0.00,Weather View 32 v70,2013-06-20 13:30:00,
2013-06-20 07:00:00,57.0,30.9,29.82,South,180,0.0,3.0,37,0.00,,,0.00,Weather View 32 v70,2013-06-20 14:00:00,
2013-06-20 07:30:00,62.0,58.1,29.85,WSW,247,0.0,4.0,87,0.00,,,0.00,Weather View 32 v70,2013-06-20 14:30:00,
2013-06-20 08:00:00,64.0,56.6,29.87,SW,225,0.0,4.0,77,0.00,,,0.00,Weather View 32 v70,2013-06-20 15:00:00,
2013-06-20 08:30:00,68.0,54.5,29.89,South,180,0.0,6.0,62,0.00,,,0.00,Weather View 32 v70,2013-06-20 15:30:00,
2013-06-20 09:00:00,67.0,53.1,29.90,ESE,112,6.0,10.0,61,0.00,,,0.00,Weather View 32 v70,2013-06-20 16:00:00,
2013-06-20 09:30:00,70.0,53.5,29.91,SSE,157,6.0,10.0,56,0.00,,,0.00,Weather View 32 v70,2013-06-20 16:30:00,
2013-06-20 10:00:00,72.0,52.3,29.92,SSW,202,6.0,10.0,50,0.00,,,0.00,Weather View 32 v70,2013-06-20 17:00:00,
2013-06-20 10:30:00,74.0,51.8,29.92,SSW,202,3.0,9.0,46,0.00,,,0.00,Weather View 32 v70,2013-06-20 17:30:00,
2013-06-20 11:00:00,75.0,50.3,29.92,WSW,247,6.0,8.0,42,0.00,,,0.00,Weather View 32 v70,2013-06-20 18:00:00,
2013-06-20 11:30:00,78.0,49.5,29.92,SSW,202,5.0,8.0,37,0.00,,,0.00,Weather View 32 v70,2013-06-20 18:30:00,
2013-06-20 12:00:00,79.0,49.7,29.92,SW,225,6.0,9.0,36,0.00,,,0.00,Weather View 32 v70,2013-06-20 19:00:00,
2013-06-20 12:30:00,79.0,48.1,29.91,SSW,202,0.0,9.0,34,0.00,,,0.00,Weather View 32 v70,2013-06-20 19:30:00,
2013-06-20 13:00:00,79.0,46.5,29.91,SSE,157,6.0,9.0,32,0.00,,,0.00,Weather View 32 v70,2013-06-20 20:00:00,
2013-06-20 13:30:00,80.0,49.0,29.90,SSW,202,4.0,11.0,34,0.00,,,0.00,Weather View 32 v70,2013-06-20 20:30:00,
2013-06-20 14:00:00,83.0,43.4,29.90,NW,315,0.0,11.0,25,0.00,,,0.00,Weather View 32 v70,2013-06-20 21:00:00,
2013-06-20 14:30:00,84.0,46.3,29.90,SW,225,0.0,9.0,27,0.00,,,0.00,Weather View 32 v70,2013-06-20 21:30:00,
2013-06-20 15:00:00,84.0,47.3,29.90,West,270,0.0,9.0,28,0.00,,,0.00,Weather View 32 v70,2013-06-20 22:00:00,
2013-06-20 15:30:00,85.0,47.2,29.89,NNW,337,8.0,12.0,27,0.00,,,0.00,Weather View 32 v70,2013-06-20 22:30:00,
2013-06-20 16:00:00,86.0,48.0,29.89,WNW,292,5.0,12.0,27,0.00,,,0.00,Weather View 32 v70,2013-06-20 23:00:00,
2013-06-20 16:30:00,84.0,43.2,29.89,NNW,337,7.0,13.0,24,0.00,,,0.00,Weather View 32 v70,2013-06-20 23:30:00,
2013-06-20 17:00:00,85.0,44.1,29.88,NW,315,13.0,14.0,24,0.00,,,0.00,Weather View 32 v70,2013-06-21 00:00:00,
2013-06-20 17:30:00,85.0,41.8,29.87,NNW,337,2.0,15.0,22,0.00,,,0.00,Weather View 32 v70,2013-06-21 00:30:00,
2013-06-20 18:00:00,85.0,44.1,29.86,NW,315,10.0,15.0,24,0.00,,,0.00,Weather View 32 v70,2013-06-21 01:00:00,
2013-06-20 18:30:00,84.0,43.2,29.86,West,270,3.0,15.0,24,0.00,,,0.00,Weather View 32 v70,2013-06-21 01:30:00,
2013-06-20 19:00:00,84.0,43.2,29.86,NW,315,2.0,15.0,24,0.00,,,0.00,Weather View 32 v70,2013-06-21 02:00:00,
2013-06-20 19:30:00,82.0,45.6,29.85,WNW,292,2.0,15.0,28,0.00,,,0.00,Weather View 32 v70,2013-06-21 02:30:00,
2013-06-20 20:00:00,79.0,46.5,29.84,WNW,292,4.0,13.0,32,0.00,,,0.00,Weather View 32 v70,2013-06-21 03:00:00,
2013-06-20 20:30:00,75.0,47.6,29.83,WNW,292,5.0,9.0,38,0.00,,,0.00,Weather View 32 v70,2013-06-21 03:30:00,
2013-06-20 21:00:00,72.0,46.3,29.82,WNW,292,5.0,9.0,40,0.00,,,0.00,Weather View 32 v70,2013-06-21 04:00:00,
2013-06-20 21:30:00,70.0,46.4,29.81,WNW,292,3.0,9.0,43,0.00,,,0.00,Weather View 32 v70,2013-06-21 04:30:00,
2013-06-20 22:00:00,69.0,47.3,29.82,WNW,292,0.0,6.0,46,0.00,,,0.00,Weather View 32 v70,2013-06-21 05:00:00,
2013-06-20 22:30:00,67.0,46.6,29.81,WNW,292,1.0,6.0,48,0.00,,,0.00,Weather View 32 v70,2013-06-21 05:30:00,
2013-06-20 23:00:00,65.0,47.9,29.81,WNW,292,0.0,6.0,54,0.00,,,0.00,Weather View 32 v70,2013-06-21 06:00:00,
2013-06-20 23:30:00,65.0,49.8,29.81,West,270,3.0,7.0,58,0.00,,,0.00,Weather View 32 v70,2013-06-21 06:30:00,